DIAMANT B-P4 DEB, 7659

Orbit data source: Space-Track

DIAMANT B-P4 DEB, 7659 is space debris in LEO originally from a launch on Thu, 06 Feb 1975 UTC launched from the French Guiana (FRGUI). Debris objects in space refer to the collection of defunct objects orbiting the Earth. Examples of debris include non-operational satellites, rocket bodies, and fragments generated from explosions, collisions, or faulty payload assembly.

Loading next visibility...
Identifier
7659, 1975-010E
Orbit
LEO
Country
Flag of FRFR
Related business
Manufacturer
Unknown
Mission
Spacecraft
Bus & Motor
Unknown
Mass
Unknown
Launch date (UTC)
1975-02-06 (51 years ago)
Launch vehicle
Unknown
Launch site
French Guiana (FRGUI)
Object type
Payload
Rocket body
Debris
Shape & HBR
Unknown shape, 0.3 m
Radar Cross Section
Medium (>0.1 m² and <1 m²)

Expand to show TLE details & history
Last TLE update: 14 hours ago

TLE from 14 hours ago
0 DIAMANT B-P4 DEB
1 07659U 75010E   26037.98415761  .00000191  00000-0  21958-3 0  9998
2 07659  49.8142 251.5735 0184793 255.1696 102.8667 13.94008072587184
Epoch: 2026-02-06T23:37Z
TLE epoch observation values (Epoch: 2026-02-06T23:37:11.217Z)
Latitude
-0.00002°
Longitude
120.16255°
Altitude
947.481 km
Speed
7.363 km/s
True Right ascension
16h 46m 17s
True Declination
0° 00' 00"
Sunlit
Object was in daylight at epoch
Visualization orbit readout
Latitude
Unknown
Longitude
Unknown
Altitude
Unknown
Speed
Unknown
Apparent Right ascension
Unknown
Apparent Declination
Unknown
Sunlit
N/A
Visualization observer readout
Local Sidereal Time
15:25:55
Azimuth
Unknown
Elevation
Unknown
Doppler factor
Unknown
Orbital elements
Apogee altitude
1,050.155 km
Perigee altitude
780.597 km
Semi-major axis
7,293.513 km
Eccentricity
0.01848
Inclination
49.8142°
RAAN
251.5735°
Arg. of periapsis
255.1696°
True anomaly
104.9201°
Mean anomaly
102.8667°
Eccentric anomaly
103.89451°
Mean motion
3.48448 °/min
Orbital period
103.32 mins
BSTAR
0.00021958
Loading maneuver chart data...
Computing Atmospheric mass density...
Loading historical data...
Loading historical data...
Loading historical data...
Loading historical data...
Loading historical data...
Loading historical data...
Loading historical data...
Other satellites on launch #10 in the year 1975 (1975-02-06 UTC)

Documentation

Showing up to 5 results
|